Regional Weather Roundup
Issued by NWS

Home | Current Version | Previous Version | Text Only | Print | Product List | Glossary Off
Versions: 1 2 3 4 5 6 7 8 9 10 11 12 13 14 15 16 17 18 19 20 21 22 23 24 25 26 27 28 29 30 31 32 33 34 35 36 37 38 39 40 41 42 43 44 45 46 47 48 49 50

000
ASUS45 KTFX 311910
RWRMT
MONTANA REGIONAL WEATHER ROUNDUP
NATIONAL WEATHER SERVICE GREAT FALLS MT
100 PM MDT MON AUG 31 2015

NOTE: "FAIR" INDICATES FEW OR NO CLOUDS BELOW 12000 FEET WITH NO
SIGNIFICANT WEATHER AND/OR OBSTRUCTIONS TO VISIBILITY.

MTZ001>007-043-312000-
WEST OF THE DIVIDE

CITY           SKY/WX    TMP DP  RH WIND       PRES   REMARKS
KALISPELL      MOCLDY    64  38  38 SW13G21   29.99F
MISSOULA       PTSUNNY   63  41  44 NE8       30.05F
BUTTE          SUNNY     66  31  27 S10G23    30.08F
MULLAN PASS    PTSUNNY   49  37  63 VRB7      30.11S
DEER LODGE       N/A     64  36  34 N9        30.08F
EUREKA           N/A     61  41  48 S13G18    29.99S
HAMILTON         N/A     68  37  32 SE7       30.03F
LIBBY            N/A     61  41  48 S10       30.03F
$$

MTZ008-052>055-312000-
SOUTHWEST MONTANA

CITY           SKY/WX    TMP DP  RH WIND       PRES   REMARKS
BOZEMAN        MOSUNNY   67  38  34 CALM      30.03F
DILLON         SUNNY     71  34  25 SW13G29   30.06F
W YELLOWSTONE  MOSUNNY   63  28  27 SW14G28   30.18S
$$

MTZ009-010-012-014-046-048-049-054-312000-
EAST SLOPES AND CENTRAL MONTANA

CITY           SKY/WX    TMP DP  RH WIND       PRES   REMARKS
CUT BANK       PTSUNNY   62  34  35 W43G52    29.87F
GREAT FALLS    MOSUNNY   71  33  24 SW22G35   29.92F
MALMSTROM AFB  MOSUNNY   70  33  25 SW26G35   29.91F
HELENA         SUNNY     73  34  23 W13       29.99F
CONRAD           N/A     70  39  32 S7        29.92F
$$

MTZ011-013-016-021-045-047-050-051-312000-
NORTH CENTRAL MONTANA

CITY           SKY/WX    TMP DP  RH WIND       PRES   REMARKS
HAVRE          MOSUNNY   72  33  24 MISG      29.85F
LEWISTOWN      SUNNY     67  31  26 W9G17     29.95F
N BAR RANCH      N/A     68  34  28 NW6G16    29.98S
CHINOOK          N/A     72  34  25 SW17G26   29.84F
FORT BENTON      N/A     72  36  26 SW18G26   29.89S
$$

MTZ017>020-022>027-061-062-312000-
NORTHEAST MONTANA

CITY           SKY/WX    TMP DP  RH WIND       PRES   REMARKS
GLASGOW        SUNNY     71  41  33 SW15      29.86F
JORDAN           N/A     75  33  21 W15G24    29.90F
SIDNEY         SUNNY     75  37  25 SW15      29.88F
WOLF POINT     SUNNY     74  40  29 SW17      29.87F
MALTA            N/A     71  36  27 W16       29.83F
PLENTYWOOD       N/A     72  37  28 W20       29.83F
$$

MTZ028>42-056>058-312000-
SOUTHCENTRAL AND SOUTHEAST MONTANA

CITY           SKY/WX    TMP DP  RH WIND       PRES   REMARKS
BAKER          SUNNY     72  42  34 VRB5      29.96F
BILLINGS       PTSUNNY   74  36  25 S6        29.96F
LIVINGSTON     MOSUNNY   78  32  18 NW15G23   29.98F
MILES CITY     SUNNY     76  39  26 W8        29.92F
EKALAKA          N/A     71  40  32 W5        29.97F
FORSYTH          N/A     75  39  27 S9        29.91F
LAUREL           N/A     74  40  29 E1        29.95F
$$

REGIONAL REPORTS...DAKOTAS

CITY           SKY/WX    TMP DP  RH WIND       PRES   REMARKS
WILLISTON      SUNNY     75  38  26 W21G26    29.87S
MINOT          SUNNY     75  42  30 W17G23    29.83F
DICKINSON      MOSUNNY   76  38  25 W15G21    29.92F
CROSBY           N/A     73  37  27 W22G30    29.82F
BISMARCK       PTSUNNY   78  50  37 NW12      29.89F
GRAND FORKS    PTSUNNY   77  61  57 NW9       29.77R
FARGO          CLOUDY    79  67  66 NW12      29.77R
BUFFALO SD       N/A     74  42  31 NW10      29.91F
RAPID CITY     CLOUDY    71  55  56 N12       30.01F
$$

REGIONAL REPORTS...WYOMING/IDAHO/WASHINGTON

CITY           SKY/WX    TMP DP  RH WIND       PRES   REMARKS
GILLETTE       SUNNY     74  45  35 E8        30.02F
SHERIDAN       SUNNY     77  44  30 S17G23    29.97F
BUFFALO WY     SUNNY     72  44  36 SE17G29   30.03F
CODY           SUNNY     77  27  15 W5        29.99F
YELLOWSTONE LA   N/A     62  28  27 VRB5      30.25F
IDAHO FALLS    SUNNY     74  38  27 SW13      30.12F
SALMON         SUNNY     66  43  42 NW7       30.03F
BOISE          SUNNY     73  43  33 N5        30.06F
SPOKANE        PTSUNNY   62  44  51 SW14G23   30.03F
$$

REGIONAL REPORTS...ALBERTA

CITY           SKY/WX    TMP DP  RH WIND       PRES   REMARKS
EDMONTON       MOSUNNY   72  37  28 W5        29.58S
CALGARY        PTSUNNY   68  36  30 W14G22    29.70S
LETHBRIDGE     MOSUNNY   68  39  34 SW30G43   29.80R
MEDICINE HAT   PTSUNNY   75  37  25 W25G37    29.73S
WATERTON GATE    N/A     57  37  47 SW17G28     N/A
CARDSTON         N/A     59  36  41 SW10G21     N/A
MILK RIVER       N/A     66  37  34 W28G36      N/A
ONEFOUR          N/A     70  34  26 W25G35      N/A
$$

REGIONAL REPORTS...SASKATCHEWAN

CITY           SKY/WX    TMP DP  RH WIND       PRES   REMARKS
SWIFT CURRENT  SUNNY     72  36  26 W22G36    29.74S
REGINA         PTSUNNY   72  45  37 W21G29    29.72S
SASKATOON      PTSUNNY   75  39  27 W18G28    29.63R
CYPRESS HILLS    N/A     66  34  30 W16G25      N/A
VAL MARIE        N/A     73  34  23 W23G30      N/A
ROCKGLEN         N/A     68  37  32 SW21G28     N/A
ASSINIBOIA       N/A     73  34  23 W5          N/A
$$



USA.gov is the U.S. government's official web portal to all federal, state and local government web resources and services.